Location: Unspecified
(0.0000°N, 0.0000°E)
Time: 19:37:38
(UTC+00:00)

STARLINK-34642 - Visible Passes

Search period start: 10 November 2025 00:00
Search period end: 20 November 2025 00:00
Orbit: 446 x 448 km, 53.2° (Epoch: 08 November)

Date Brightness Start Highest point End Pass type
(mag) Time Alt. Az. Time Alt. Az. Time Alt. Az.
14 Nov 4.5 18:53:29 10° N 18:55:20 24° NNE 18:55:20 24° NNE visible
15 Nov 4.6 18:15:00 10° N 18:17:33 19° NE 18:20:06 10° ESE visible
15 Nov 6.3 19:52:34 10° W 19:54:35 15° SW 19:55:23 14° SW visible
16 Nov 5.6 19:12:28 10° WNW 19:15:22 24° SW 19:18:17 10° S visible
17 Nov 4.5 18:32:44 10° NW 18:36:05 43° WSW 18:39:27 10° SSE visible
